This is the latest recevied weather packets stored in our database for station/object K0APR. If no packets are shown the sender has not sent any weather packets the latest 1 day(s).
| Time | Temp. | Humidity | Pressure | Rain* | Wind** | Luminosity | Snow |
|---|---|---|---|---|---|---|---|
| 1778020267 | 8.89° C | 42% | 1012.3 hPa | 0 mm | 4.47 m/s, 332° | 159 W/m² | - |
| 1778019963 | 8.89° C | 41% | 1012.3 hPa | 0 mm | 6.71 m/s, 323° | 193 W/m² | - |
| 1778019659 | 8.89° C | 41% | 1012.3 hPa | 0 mm | 7.6 m/s, 324° | 180 W/m² | - |
| 1778019357 | 8.89° C | 41% | 1012.3 hPa | 0 mm | 4.02 m/s, 325° | 188 W/m² | - |
| 1778019053 | 8.89° C | 40% | 1012 hPa | 0 mm | 6.26 m/s, 309° | 195 W/m² | - |
| 1778018750 | 8.89° C | 41% | 1012 hPa | 0 mm | 6.26 m/s, 335° | 202 W/m² | - |
| 1778018448 | 9.44° C | 40% | 1012.3 hPa | 0 mm | 8.05 m/s, 339° | 191 W/m² | - |
| 1778018146 | 9.44° C | 40% | 1012 hPa | 0 mm | 6.26 m/s, 343° | 187 W/m² | - |
| 1778017844 | 9.44° C | 39% | 1012 hPa | 0 mm | 7.15 m/s, 303° | 186 W/m² | - |
| 1778017542 | 9.44° C | 40% | 1012 hPa | 0 mm | 4.47 m/s, 319° | 182 W/m² | - |
| 1778017238 | 8.89° C | 40% | 1012.3 hPa | 0 mm | 3.58 m/s, 323° | 156 W/m² | - |
| 1778016936 | 9.44° C | 39% | 1012 hPa | 0 mm | 6.26 m/s, 304° | 193 W/m² | - |
| 1778016632 | 9.44° C | 38% | 1012 hPa | 0 mm | 5.36 m/s, 330° | 246 W/m² | - |
| 1778016328 | 8.89° C | 38% | 1012 hPa | 0 mm | 5.81 m/s, 333° | 239 W/m² | - |
| 1778016026 | 9.44° C | 39% | 1012.3 hPa | 0 mm | 5.36 m/s, 308° | 203 W/m² | - |
| 1778015723 | 9.44° C | 40% | 1012.3 hPa | 0 mm | 1.79 m/s, 290° | 195 W/m² | - |
| 1778015419 | 9.44° C | 40% | 1012.3 hPa | 0 mm | 4.47 m/s, 335° | 207 W/m² | - |
| 1778015116 | 9.44° C | 39% | 1012.3 hPa | 0 mm | 5.81 m/s, 307° | 266 W/m² | - |
| 1778014814 | 9.44° C | 39% | 1012.7 hPa | 0 mm | 6.71 m/s, 316° | 279 W/m² | - |
| 1778014512 | 8.89° C | 41% | 1012.3 hPa | 0 mm | 3.58 m/s, 327° | 237 W/m² | - |
| 1778014208 | 8.89° C | 40% | 1012 hPa | 0 mm | 7.6 m/s, 305° | 227 W/m² | - |
| 1778013906 | 9.44° C | 39% | 1012.3 hPa | 0 mm | 4.47 m/s, 297° | 273 W/m² | - |
| 1778013603 | 9.44° C | 41% | 1012.3 hPa | 0 mm | 2.24 m/s, 307° | 288 W/m² | - |
| 1778013299 | 9.44° C | 40% | 1012.3 hPa | 0 mm | 5.36 m/s, 311° | 290 W/m² | - |
| 1778012996 | 9.44° C | 39% | 1012.3 hPa | 0 mm | 5.81 m/s, 312° | 305 W/m² | - |
* Rain latest hour (hover to see other rain measurements)
** Current wind speed in m/s (hover to see current wind gust speed)